When you browse on this site, cookies collect data to enhance your experience and personalize the content and advertising you see.
Visit our Privacy Policy to learn more. By continuing to use the site, you agree to this use of cookies and data.
  • en Belgique
  • Liste des pays
  • À 7 jours
  • Température de l'eau
  • Carte satellitaire
  • Carte météo
  • Widgets météo
  • user-avatar
    Se connecter

    Météo par heure à Zadore

    Ce jour, 23 Mars, Samedi

    Heure Température Précipitation Vent Pression Humidité
    00:00 -1°C° 0.1 mm 5 m/s 742 mmHg 83%
    01:00 -1°C° 0.1 mm 5 m/s 742 mmHg 84%
    02:00 -1°C° 0 mm 4 m/s 743 mmHg 85%
    03:00 -1°C° 0.1 mm 4 m/s 743 mmHg 86%
    04:00 -1°C° 0.1 mm 4 m/s 744 mmHg 88%
    05:00 -1°C° 0.1 mm 4 m/s 745 mmHg 89%
    06:00 -1°C° 0 mm 4 m/s 745 mmHg 89%
    07:00 0°C° 0 mm 3 m/s 746 mmHg 88%
    08:00 +1°C° 0 mm 3 m/s 747 mmHg 87%
    09:00 +2°C° 0 mm 2 m/s 747 mmHg 83%
    10:00 +3°C° 0 mm 2 m/s 747 mmHg 78%
    11:00 +5°C° 0 mm 1 m/s 747 mmHg 74%
    12:00 +5°C° 0 mm 1 m/s 747 mmHg 74%
    13:00 +5°C° 0 mm 1 m/s 747 mmHg 73%
    14:00 +5°C° 0 mm 1 m/s 746 mmHg 74%
    15:00 +4°C° 0 mm 1 m/s 746 mmHg 78%
    16:00 +4°C° 0 mm 1 m/s 745 mmHg 81%
    17:00 +3°C° 0 mm 1 m/s 745 mmHg 85%
    18:00 +2°C° 0 mm 1 m/s 744 mmHg 87%
    19:00 -1°C° 0 mm 2 m/s 744 mmHg 90%
    20:00 -2°C° 0 mm 2 m/s 744 mmHg 92%
    21:00 -1°C° 0 mm 3 m/s 743 mmHg 90%
    22:00 -1°C° 0 mm 3 m/s 742 mmHg 89%
    23:00 -2°C° 0 mm 4 m/s 742 mmHg 87%

    Demain, 24 Mars, Dimanche

    Heure Température Précipitation Vent Pression Humidité
    00:00 -2°C° 0.1 mm 4 m/s 741 mmHg 87%
    01:00 -1°C° 0.1 mm 4 m/s 740 mmHg 86%
    02:00 -1°C° 0.1 mm 4 m/s 739 mmHg 86%
    03:00 -1°C° 0.7 mm 4 m/s 739 mmHg 88%
    04:00 -1°C° 0.7 mm 4 m/s 738 mmHg 89%
    05:00 -1°C° 0.7 mm 4 m/s 737 mmHg 91%
    06:00 -1°C° 0.1 mm 4 m/s 737 mmHg 91%
    07:00 -1°C° 0.1 mm 4 m/s 736 mmHg 91%
    08:00 +1°C° 0.1 mm 3 m/s 736 mmHg 90%
    09:00 0°C° 0 mm 4 m/s 736 mmHg 89%
    10:00 +1°C° 0 mm 4 m/s 736 mmHg 87%
    11:00 +1°C° 0 mm 4 m/s 735 mmHg 85%
    12:00 +1°C° 0.1 mm 4 m/s 735 mmHg 79%
    13:00 +3°C° 0.1 mm 4 m/s 735 mmHg 74%
    14:00 +2°C° 0.1 mm 5 m/s 735 mmHg 68%
    15:00 +3°C° 0.1 mm 4 m/s 735 mmHg 69%
    16:00 +1°C° 0.1 mm 4 m/s 735 mmHg 71%
    17:00 +1°C° 0.1 mm 3 m/s 735 mmHg 72%
    18:00 0°C° 0 mm 3 m/s 736 mmHg 75%
    19:00 -1°C° 0 mm 3 m/s 736 mmHg 79%
    20:00 -1°C° 0 mm 2 m/s 736 mmHg 82%
    21:00 -2°C° 0 mm 2 m/s 736 mmHg 82%
    22:00 -2°C° 0 mm 2 m/s 736 mmHg 83%
    23:00 -3°C° 0 mm 2 m/s 736 mmHg 83%

    Après-demain, 25 Mars, Lundi

    Heure Température Précipitation Vent Pression Humidité
    00:00 -4°C° 0 mm 3 m/s 736 mmHg 83%
    01:00 -4°C° 0 mm 3 m/s 736 mmHg 83%
    02:00 -5°C° 0 mm 3 m/s 736 mmHg 83%
    03:00 -4°C° 0 mm 3 m/s 735 mmHg 82%
    04:00 -4°C° 0 mm 3 m/s 735 mmHg 82%
    05:00 -4°C° 0 mm 3 m/s 735 mmHg 81%
    06:00 -2°C° 0 mm 3 m/s 735 mmHg 80%
    07:00 -2°C° 0 mm 3 m/s 735 mmHg 79%
    08:00 -1°C° 0 mm 3 m/s 735 mmHg 78%
    09:00 0°C° 0 mm 3 m/s 735 mmHg 74%
    10:00 +1°C° 0 mm 3 m/s 735 mmHg 71%
    11:00 +3°C° 0 mm 4 m/s 735 mmHg 67%
    12:00 +3°C° 0.2 mm 4 m/s 735 mmHg 65%
    13:00 +4°C° 0.2 mm 4 m/s 734 mmHg 63%
    14:00 +4°C° 0.2 mm 4 m/s 734 mmHg 61%
    15:00 +4°C° 0.1 mm 3 m/s 734 mmHg 64%
    16:00 +4°C° 0.1 mm 2 m/s 734 mmHg 67%
    17:00 +3°C° 0.1 mm 2 m/s 734 mmHg 71%
    18:00 +2°C° 0 mm 2 m/s 734 mmHg 74%
    19:00 +1°C° 0 mm 2 m/s 734 mmHg 77%
    20:00 -1°C° 0 mm 2 m/s 734 mmHg 79%
    21:00 -2°C° 0 mm 2 m/s 734 mmHg 80%
    22:00 -2°C° 0 mm 2 m/s 734 mmHg 80%
    23:00 -2°C° 0 mm 2 m/s 734 mmHg 81%

    26 Mars, Mardi

    Heure Température Précipitation Vent Pression Humidité
    00:00 -2°C° 0 mm 2 m/s 734 mmHg 82%
    01:00 -2°C° 0 mm 2 m/s 733 mmHg 82%
    02:00 -2°C° 0 mm 3 m/s 733 mmHg 83%
    03:00 -2°C° 0 mm 3 m/s 733 mmHg 84%
    04:00 -2°C° 0 mm 3 m/s 733 mmHg 85%
    05:00 -1°C° 0 mm 3 m/s 732 mmHg 86%
    06:00 -1°C° 0.1 mm 3 m/s 732 mmHg 85%
    07:00 0°C° 0.1 mm 3 m/s 732 mmHg 84%
    08:00 0°C° 0.1 mm 3 m/s 732 mmHg 83%
    09:00 0°C° 0.5 mm 3 m/s 732 mmHg 83%
    10:00 0°C° 0.5 mm 3 m/s 732 mmHg 83%
    11:00 0°C° 0.5 mm 3 m/s 732 mmHg 83%
    12:00 -1°C° 0.3 mm 4 m/s 732 mmHg 80%
    13:00 -1°C° 0.3 mm 4 m/s 732 mmHg 78%
    14:00 -1°C° 0.3 mm 5 m/s 732 mmHg 75%
    15:00 -2°C° 0.1 mm 4 m/s 733 mmHg 73%
    16:00 -2°C° 0.1 mm 4 m/s 733 mmHg 71%
    17:00 -3°C° 0.1 mm 4 m/s 733 mmHg 68%
    18:00 -4°C° 0 mm 4 m/s 734 mmHg 71%
    19:00 -4°C° 0 mm 3 m/s 734 mmHg 73%
    20:00 -5°C° 0 mm 3 m/s 735 mmHg 75%
    21:00 -5°C° 0 mm 3 m/s 735 mmHg 77%
    22:00 -5°C° 0 mm 4 m/s 735 mmHg 78%
    23:00 -7°C° 0 mm 4 m/s 735 mmHg 80%

    27 Mars, Mercredi

    Heure Température Précipitation Vent Pression Humidité
    00:00 -7°C° 0 mm 4 m/s 735 mmHg 78%
    01:00 -7°C° 0 mm 4 m/s 735 mmHg 76%
    02:00 -8°C° 0 mm 4 m/s 736 mmHg 75%
    03:00 -8°C° 0 mm 5 m/s 736 mmHg 76%
    04:00 -8°C° 0 mm 5 m/s 736 mmHg 76%
    05:00 -8°C° 0 mm 5 m/s 736 mmHg 77%
    06:00 -8°C° 0 mm 6 m/s 737 mmHg 76%
    07:00 -8°C° 0 mm 6 m/s 737 mmHg 76%
    08:00 -6°C° 0 mm 6 m/s 738 mmHg 75%
    09:00 -5°C° 0 mm 6 m/s 739 mmHg 72%
    10:00 -5°C° 0 mm 6 m/s 739 mmHg 68%
    11:00 -4°C° 0 mm 6 m/s 740 mmHg 65%
    12:00 -4°C° 0 mm 6 m/s 740 mmHg 63%
    13:00 -3°C° 0 mm 6 m/s 741 mmHg 62%
    14:00 -3°C° 0 mm 6 m/s 742 mmHg 60%
    15:00 -2°C° 0 mm 5 m/s 742 mmHg 60%
    16:00 -2°C° 0 mm 5 m/s 743 mmHg 60%
    17:00 -2°C° 0 mm 4 m/s 743 mmHg 61%
    18:00 -2°C° 0 mm 3 m/s 744 mmHg 66%
    19:00 -4°C° 0 mm 3 m/s 744 mmHg 72%
    20:00 -4°C° 0 mm 2 m/s 744 mmHg 77%
    21:00 -5°C° 0 mm 2 m/s 745 mmHg 78%
    22:00 -5°C° 0 mm 2 m/s 745 mmHg 79%
    23:00 -5°C° 0 mm 2 m/s 745 mmHg 80%

    28 Mars, Jeudi

    Heure Température Précipitation Vent Pression Humidité
    00:00 -5°C° 0 mm 2 m/s 745 mmHg 77%
    01:00 -6°C° 0 mm 3 m/s 744 mmHg 74%
    02:00 -5°C° 0 mm 3 m/s 744 mmHg 71%
    03:00 -5°C° 0 mm 3 m/s 744 mmHg 72%
    04:00 -5°C° 0 mm 4 m/s 744 mmHg 72%
    05:00 -4°C° 0 mm 4 m/s 743 mmHg 72%
    06:00 -3°C° 0 mm 4 m/s 743 mmHg 74%
    07:00 -4°C° 0 mm 5 m/s 743 mmHg 76%
    08:00 -2°C° 0 mm 5 m/s 743 mmHg 78%
    09:00 -1°C° 0 mm 5 m/s 742 mmHg 76%
    10:00 -1°C° 0 mm 5 m/s 742 mmHg 74%
    11:00 0°C° 0 mm 5 m/s 742 mmHg 72%
    12:00 0°C° 0 mm 5 m/s 741 mmHg 72%
    13:00 +1°C° 0 mm 5 m/s 741 mmHg 72%
    14:00 +1°C° 0 mm 5 m/s 740 mmHg 72%
    15:00 +1°C° 0.2 mm 5 m/s 740 mmHg 74%
    16:00 +1°C° 0.2 mm 5 m/s 739 mmHg 76%
    17:00 +1°C° 0.2 mm 5 m/s 739 mmHg 78%
    18:00 +1°C° 0.1 mm 5 m/s 738 mmHg 79%
    19:00 +1°C° 0.1 mm 4 m/s 738 mmHg 80%
    20:00 +1°C° 0.1 mm 4 m/s 738 mmHg 81%
    21:00 +1°C° 0.2 mm 4 m/s 738 mmHg 82%
    22:00 0°C° 0.2 mm 5 m/s 737 mmHg 83%
    23:00 0°C° 0.2 mm 5 m/s 737 mmHg 84%
    Voir plus